Perry, FL

7:39 PM EST on December 08, 2016 (GMT -0500)
Perry

Weather History for K40J - June, 2013

Change the Weather History Date:

Sunday, June 16, 2013

  Actual Average (KVLD) Record (KVLD)
Temperature  
Mean Temperature 78 °F -  
Max Temperature 88 °F 88 °F 98 °F (2014)
Min Temperature 69 °F 67 °F 57 °F (2002)
Cooling Degree Days 14    
Growing Degree Days 28 (Base 50)    
Moisture  
Dew Point 70 °F    
Average Humidity 75    
Maximum Humidity 89    
Minimum Humidity 63    
Precipitation  
Precipitation 0.04 in - - ()
Sea Level Pressure  
Sea Level Pressure 30.08 in    
Wind  
Wind Speed 5 mph (SE)    
Max Wind Speed 9 mph    
Max Gust Speed -    
Visibility 10 miles    
Events Thunderstorm    
Averages and records for this station are not official NWS values.
T = Trace of Precipitation, MM = Missing Value Source: NWS Daily Summary

Daily Weather History Graph

Daily Weather History Graph

Search for Another Location

Airport or City:

Trip Planner

Search our weather history database for the weather conditions in past years. The results will help you decide how hot, cold, wet, or windy it might be!

Date:

Astronomy

Jun. 16, 2013 Rise Set
Actual Time 6:32 AM EDT 8:37 PM EDT
Civil Twilight 6:05 AM EDT 9:04 PM EDT
Nautical Twilight 5:31 AM EDT 9:38 PM EDT
Astronomical Twilight 4:56 AM EDT 10:14 PM EDT
Moon 1:37 PM EDT (6/16) 1:09 AM EDT (6/16)
Length of Visible Light 14h 59m
Length of Day
14h 04m
Waxing Crescent, 49% of the Moon is Illuminated
Jun 16
Waxing Crescent
Jun 16
First Quarter
Jun 23
Full
Jun 30
Last Quarter
Jul 8
New

Hourly Weather History & Observations

Time (EDT) Temp. Heat Index Dew Point Humidity Pressure Visibility Wind Dir Wind Speed Gust Speed Precip Events Conditions
12:15 AM 75.2 °F - 64.4 °F 69% 30.09 in 10.0 mi East 6.9 mph - N/A   Clear
12:35 AM 73.4 °F - 64.4 °F 73% 30.09 in 10.0 mi East 6.9 mph - N/A   Clear
12:53 AM 75.9 °F - 64.9 °F 69% 30.08 in - East 4.6 mph - 0.01 in   Unknown
12:55 AM 73.4 °F - 64.4 °F 73% 30.09 in 10.0 mi East 4.6 mph - N/A   Clear
1:15 AM 73.4 °F - 64.4 °F 73% 30.09 in 10.0 mi East 6.9 mph - N/A   Clear
1:35 AM 73.4 °F - 64.4 °F 73% 30.09 in 10.0 mi ESE 6.9 mph - N/A   Clear
1:53 AM 75.0 °F - 64.9 °F 71% 30.07 in - ESE 6.9 mph - N/A   Unknown
1:55 AM 73.4 °F - 64.4 °F 73% 30.09 in 10.0 mi East 9.2 mph - N/A   Clear
2:15 AM 73.4 °F - 64.4 °F 73% 30.09 in 10.0 mi East 5.8 mph - N/A   Clear
2:35 AM 73.4 °F - 64.4 °F 73% 30.09 in 10.0 mi ENE 3.5 mph - N/A   Clear
2:53 AM 73.0 °F - 64.9 °F 76% 30.07 in - ENE 4.6 mph - N/A   Unknown
2:55 AM 71.6 °F - 64.4 °F 78% 30.09 in 10.0 mi ENE 3.5 mph - N/A   Clear
3:15 AM 71.6 °F - 64.4 °F 78% 30.08 in 10.0 mi ENE 3.5 mph - N/A   Clear
3:35 AM 71.6 °F - 64.4 °F 78% 30.08 in 10.0 mi ENE 3.5 mph - N/A   Mostly Cloudy
3:53 AM 73.9 °F - 66.0 °F 76% 30.07 in - East 3.5 mph - N/A   Unknown
3:55 AM 71.6 °F - 64.4 °F 78% 30.08 in 5.0 mi East 3.5 mph - N/A   Haze
4:15 AM 71.6 °F - 64.4 °F 78% 30.08 in 10.0 mi East 6.9 mph - N/A   Mostly Cloudy
4:35 AM 71.6 °F - 64.4 °F 78% 30.09 in 10.0 mi East 4.6 mph - N/A   Scattered Clouds
4:53 AM 73.0 °F - 66.0 °F 79% 30.07 in - ESE 6.9 mph - N/A   Unknown
4:55 AM 71.6 °F - 64.4 °F 78% 30.09 in 10.0 mi East 6.9 mph - N/A   Clear
5:15 AM 71.6 °F - 64.4 °F 78% 30.08 in 10.0 mi East 6.9 mph - N/A   Clear
5:35 AM 69.8 °F - 66.2 °F 88% 30.09 in 10.0 mi East 5.8 mph - N/A   Clear
5:53 AM 72.0 °F - 66.0 °F 81% 30.07 in - East 4.6 mph - N/A   Unknown
5:55 AM 69.8 °F - 66.2 °F 88% 30.09 in 10.0 mi East 3.5 mph - N/A   Clear
6:15 AM 69.8 °F - 66.2 °F 88% 30.09 in 10.0 mi East 5.8 mph - N/A   Clear
6:35 AM 69.8 °F - 66.2 °F 88% 30.10 in 10.0 mi ESE 5.8 mph - N/A   Scattered Clouds
6:53 AM 72.0 °F - 66.9 °F 84% 30.08 in - ESE 4.6 mph - 0.02 in   Unknown
6:55 AM 69.8 °F - 66.2 °F 88% 30.10 in 10.0 mi ESE 3.5 mph - N/A   Scattered Clouds
7:15 AM 69.8 °F - 66.2 °F 88% 30.09 in 10.0 mi ESE 6.9 mph - N/A   Clear
7:35 AM 71.6 °F - 68.0 °F 88% 30.10 in 10.0 mi ESE 6.9 mph - N/A   Clear
7:53 AM 75.0 °F - 66.9 °F 76% 30.09 in - ESE 4.6 mph - N/A   Unknown
7:55 AM 71.6 °F - 68.0 °F 88% 30.10 in 10.0 mi ESE 5.8 mph - N/A   Clear
8:15 AM 73.4 °F - 68.0 °F 83% 30.10 in 10.0 mi ESE 5.8 mph - N/A   Clear
8:35 AM 75.2 °F - 68.0 °F 78% 30.11 in 10.0 mi ESE 6.9 mph - N/A   Clear
8:53 AM 80.1 °F 82.9 °F 69.1 °F 69% 30.10 in - ESE 9.2 mph - N/A   Unknown
8:55 AM 77.0 °F - 69.8 °F 78% 30.11 in 10.0 mi SE 8.1 mph - N/A   Clear
9:15 AM 78.8 °F - 69.8 °F 74% 30.11 in 10.0 mi SE 8.1 mph - N/A   Clear
9:35 AM 78.8 °F - 69.8 °F 74% 30.12 in 10.0 mi SE 8.1 mph - N/A   Clear
9:53 AM 82.9 °F 88.0 °F 72.0 °F 69% 30.10 in - Variable 5.8 mph - N/A   Unknown
9:55 AM 80.6 °F 84.6 °F 71.6 °F 74% 30.12 in 10.0 mi SSE 4.6 mph - N/A   Clear
10:15 AM 80.6 °F 84.6 °F 71.6 °F 74% 30.12 in 10.0 mi ESE 5.8 mph - N/A   Scattered Clouds
10:35 AM 80.6 °F 84.6 °F 71.6 °F 74% 30.12 in 10.0 mi SSE 3.5 mph - N/A Thunderstorm Overcast
10:53 AM 84.9 °F 91.4 °F 73.0 °F 67% 30.10 in - Variable 3.5 mph - N/A   Unknown
10:55 AM 82.4 °F 87.2 °F 71.6 °F 70% 30.12 in 10.0 mi SE 3.5 mph - N/A   Mostly Cloudy
11:15 AM 82.4 °F 87.2 °F 71.6 °F 70% 30.12 in 10.0 mi SE 4.6 mph - N/A   Overcast
11:35 AM 82.4 °F 87.2 °F 71.6 °F 70% 30.11 in 10.0 mi Calm Calm - N/A   Mostly Cloudy
11:53 AM 87.1 °F 94.5 °F 73.0 °F 63% 30.09 in - Calm Calm - N/A   Unknown
11:55 AM 84.2 °F 89.6 °F 71.6 °F 66% 30.11 in 10.0 mi Calm Calm - N/A   Overcast
12:15 PM 84.2 °F 89.6 °F 71.6 °F 66% 30.10 in 10.0 mi Calm Calm - N/A   Overcast
12:35 PM 82.4 °F 87.2 °F 71.6 °F 70% 30.11 in 10.0 mi Calm Calm - N/A   Overcast
12:53 PM 84.9 °F 91.4 °F 73.0 °F 67% 30.09 in - WSW 3.5 mph - N/A   Unknown
12:55 PM 82.4 °F 87.2 °F 71.6 °F 70% 30.10 in 10.0 mi SW 4.6 mph - N/A   Overcast
1:15 PM 82.4 °F 87.2 °F 71.6 °F 70% 30.10 in 10.0 mi Calm Calm - N/A   Overcast
1:35 PM 84.2 °F 89.6 °F 71.6 °F 66% 30.10 in 10.0 mi Calm Calm - N/A   Overcast
1:53 PM 86.0 °F 93.0 °F 73.0 °F 65% 30.08 in - Calm Calm - N/A   Unknown
1:55 PM 82.4 °F 87.2 °F 71.6 °F 70% 30.09 in 10.0 mi Calm Calm - N/A   Overcast
2:15 PM 84.2 °F 89.6 °F 71.6 °F 66% 30.09 in 10.0 mi SSE 3.5 mph - N/A   Overcast
2:35 PM 82.4 °F 88.2 °F 73.4 °F 74% 30.08 in 10.0 mi SW 5.8 mph - N/A   Overcast
2:53 PM 84.9 °F 93.3 °F 75.0 °F 72% 30.06 in - SSW 8.1 mph - N/A   Unknown
2:55 PM 82.4 °F 88.2 °F 73.4 °F 74% 30.08 in 10.0 mi SSW 5.8 mph - N/A   Overcast
3:15 PM 82.4 °F 88.2 °F 73.4 °F 74% 30.07 in 10.0 mi SSW 5.8 mph - N/A   Overcast
3:35 PM 82.4 °F 88.2 °F 73.4 °F 74% 30.07 in 10.0 mi SSW 5.8 mph - N/A   Overcast
3:53 PM 84.9 °F 93.3 °F 75.0 °F 72% 30.04 in - SSW 3.5 mph - N/A   Unknown
3:55 PM 82.4 °F 88.2 °F 73.4 °F 74% 30.06 in 10.0 mi SSW 3.5 mph - N/A   Overcast
4:15 PM 82.4 °F 88.2 °F 73.4 °F 74% 30.05 in 10.0 mi SSW 4.6 mph - N/A   Overcast
4:35 PM 82.4 °F 88.2 °F 73.4 °F 74% 30.05 in 10.0 mi SSW 8.1 mph - N/A   Overcast
4:53 PM 84.9 °F 94.1 °F 75.9 °F 74% 30.03 in - WSW 5.8 mph - N/A   Unknown
4:55 PM 82.4 °F 88.2 °F 73.4 °F 74% 30.05 in 10.0 mi WSW 5.8 mph - N/A   Overcast
5:15 PM 82.4 °F 88.2 °F 73.4 °F 74% 30.04 in 10.0 mi West 4.6 mph - N/A   Overcast
5:35 PM 84.2 °F 90.9 °F 73.4 °F 70% 30.04 in 10.0 mi Calm Calm - N/A   Overcast
5:53 PM 88.0 °F 97.5 °F 75.0 °F 65% 30.02 in - Variable 3.5 mph - N/A   Unknown
5:55 PM 86.0 °F 93.4 °F 73.4 °F 66% 30.03 in 10.0 mi South 3.5 mph - N/A   Mostly Cloudy
6:15 PM 86.0 °F 93.4 °F 73.4 °F 66% 30.03 in 10.0 mi WSW 4.6 mph - N/A   Scattered Clouds
6:35 PM 86.0 °F 93.4 °F 73.4 °F 66% 30.03 in 10.0 mi SSW 4.6 mph - N/A   Scattered Clouds
6:53 PM 87.1 °F 95.4 °F 73.9 °F 65% 30.02 in - South 4.6 mph - N/A   Unknown
6:55 PM 86.0 °F 93.4 °F 73.4 °F 66% 30.04 in 10.0 mi South 4.6 mph - N/A   Scattered Clouds
7:15 PM 84.2 °F 90.9 °F 73.4 °F 70% 30.04 in 10.0 mi SW 3.5 mph - N/A   Scattered Clouds
7:35 PM 84.2 °F 90.9 °F 73.4 °F 70% 30.05 in 10.0 mi South 4.6 mph - N/A   Overcast
7:53 PM 84.0 °F 91.2 °F 73.9 °F 72% 30.04 in - SSW 4.6 mph - N/A   Unknown
7:55 PM 82.4 °F 88.2 °F 73.4 °F 74% 30.05 in 10.0 mi SSW 4.6 mph - N/A   Mostly Cloudy
8:15 PM 80.6 °F 85.4 °F 73.4 °F 79% 30.05 in 10.0 mi South 3.5 mph - N/A   Scattered Clouds
8:35 PM 80.6 °F 85.4 °F 73.4 °F 79% 30.05 in 10.0 mi SW 3.5 mph - N/A   Scattered Clouds
8:53 PM 80.1 °F 84.2 °F 73.0 °F 79% 30.04 in - SW 4.6 mph - N/A   Unknown
8:55 PM 78.8 °F - 73.4 °F 83% 30.05 in 10.0 mi SW 3.5 mph - N/A   Clear
9:15 PM 78.8 °F - 71.6 °F 78% 30.05 in 10.0 mi SSW 3.5 mph - N/A   Clear
9:35 PM 78.8 °F - 71.6 °F 78% 30.05 in 10.0 mi South 5.8 mph - N/A   Clear
9:53 PM 79.0 °F - 73.0 °F 82% 30.04 in - South 3.5 mph - N/A   Unknown
9:55 PM 77.0 °F - 73.4 °F 89% 30.05 in 10.0 mi South 3.5 mph - N/A   Clear
10:15 PM 77.0 °F - 71.6 °F 83% 30.07 in 10.0 mi Calm Calm - N/A   Clear
10:35 PM 77.0 °F - 71.6 °F 83% 30.08 in 10.0 mi ESE 3.5 mph - N/A   Clear
10:53 PM 78.1 °F - 73.0 °F 84% 30.07 in - ESE 3.5 mph - N/A   Unknown
10:55 PM 77.0 °F - 71.6 °F 83% 30.09 in 10.0 mi ESE 3.5 mph - N/A   Clear
11:15 PM 77.0 °F - 71.6 °F 83% 30.10 in 10.0 mi ESE 4.6 mph - N/A   Mostly Cloudy
11:35 PM 75.2 °F - 71.6 °F 89% 30.09 in 10.0 mi SE 6.9 mph - N/A   Scattered Clouds
11:53 PM 78.1 °F - 72.0 °F 81% 30.08 in - SE 8.1 mph - 0.01 in   Unknown
11:55 PM 75.2 °F - 71.6 °F 89% 30.09 in 10.0 mi SE 6.9 mph - N/A   Clear